N1214 KMCI-KSTL

Flight info

Callsign N1214
Flight time 1h 18m
Altitude 7000
Route LAKES5 COU KAYLA KAYLA3
Aircraft PA34/L-SDFGRY/S

Departure

Time 2026-05-05 23:11
Airport Kansas City International Airport (KMCI)

Arrival

Time 2026-05-06 00:29
Airport St. Louis Lambert International Airport (KSTL)
Time Latitude Longitude Altitude Speed Heading
2026-05-05 23:02 39.30522 -94.72130 1002 ft 0 kts 286°
2026-05-05 23:04 39.30522 -94.72131 1011 ft 1 kts 285°
2026-05-05 23:05 39.30528 -94.72177 1002 ft 0 kts 282°
2026-05-05 23:05 39.30537 -94.72235 1002 ft 15 kts 281°
2026-05-05 23:06 39.30616 -94.72278 1001 ft 16 kts 14°
2026-05-05 23:06 39.30773 -94.72229 999 ft 35 kts 12°
2026-05-05 23:06 39.31052 -94.72152 996 ft 41 kts 13°
2026-05-05 23:06 39.31315 -94.72071 993 ft 38 kts 13°
2026-05-05 23:07 39.31506 -94.72013 990 ft 21 kts 13°
2026-05-05 23:07 39.31640 -94.71980 989 ft 17 kts 353°
2026-05-05 23:07 39.31701 -94.72052 995 ft 16 kts 292°
2026-05-05 23:07 39.31710 -94.72079 989 ft 0 kts 286°
2026-05-05 23:09 39.31721 -94.72130 991 ft 9 kts 285°
2026-05-05 23:09 39.31736 -94.72218 989 ft 8 kts 264°
2026-05-05 23:09 39.31733 -94.72224 989 ft 0 kts 197°
2026-05-05 23:10 39.31732 -94.72224 989 ft 0 kts 196°
2026-05-05 23:10 39.31498 -94.72295 993 ft 72 kts 192°
2026-05-05 23:10 39.30838 -94.72487 1069 ft 111 kts 194°
2026-05-05 23:10 39.30059 -94.72707 1411 ft 118 kts 194°
2026-05-05 23:11 39.29215 -94.72968 1722 ft 134 kts 197°
2026-05-05 23:11 39.28261 -94.73252 2037 ft 149 kts 186°
2026-05-05 23:11 39.27197 -94.73173 2313 ft 156 kts 179°
2026-05-05 23:11 39.26155 -94.72801 2480 ft 161 kts 146°
2026-05-05 23:12 39.25680 -94.71498 2655 ft 167 kts 91°
2026-05-05 23:12 39.26152 -94.70172 3001 ft 166 kts 50°
2026-05-05 23:12 39.26877 -94.69051 3352 ft 159 kts 49°
2026-05-05 23:12 39.27577 -94.67949 3715 ft 157 kts 49°
2026-05-05 23:13 39.28258 -94.66870 4073 ft 158 kts 49°
2026-05-05 23:13 39.28804 -94.65680 4401 ft 156 kts 79°
2026-05-05 23:13 39.28618 -94.64330 4755 ft 153 kts 109°
2026-05-05 23:13 39.28342 -94.63014 5114 ft 150 kts 107°
2026-05-05 23:14 39.28062 -94.61707 5481 ft 151 kts 107°
2026-05-05 23:14 39.27776 -94.60389 5847 ft 154 kts 107°
2026-05-05 23:14 39.27491 -94.59064 6219 ft 152 kts 107°
2026-05-05 23:14 39.27206 -94.57757 6578 ft 151 kts 107°
2026-05-05 23:15 39.26915 -94.56457 6930 ft 149 kts 107°
2026-05-05 23:15 39.26620 -94.55141 7029 ft 167 kts 107°
2026-05-05 23:15 39.26280 -94.53628 7014 ft 181 kts 107°
2026-05-05 23:15 39.25923 -94.52043 7019 ft 187 kts 107°
2026-05-05 23:16 39.25558 -94.50427 7014 ft 188 kts 107°
2026-05-05 23:16 39.25193 -94.48807 7016 ft 189 kts 107°
2026-05-05 23:16 39.24824 -94.47174 7023 ft 189 kts 107°
2026-05-05 23:16 39.24460 -94.45550 7024 ft 189 kts 107°
2026-05-05 23:17 39.24093 -94.43921 7023 ft 189 kts 107°
2026-05-05 23:17 39.23747 -94.42281 7024 ft 189 kts 104°
2026-05-05 23:17 39.23472 -94.40618 7027 ft 190 kts 101°
2026-05-05 23:17 39.23220 -94.38943 7016 ft 190 kts 101°
2026-05-05 23:18 39.22966 -94.37270 7020 ft 189 kts 102°
2026-05-05 23:18 39.22706 -94.35594 7020 ft 191 kts 102°
2026-05-05 23:18 39.22449 -94.33923 7023 ft 189 kts 101°
2026-05-05 23:18 39.22196 -94.32275 7026 ft 190 kts 101°
2026-05-05 23:19 39.21935 -94.30607 7025 ft 189 kts 102°
2026-05-05 23:19 39.21676 -94.28938 7022 ft 190 kts 102°
2026-05-05 23:19 39.21417 -94.27271 7024 ft 190 kts 101°
2026-05-05 23:19 39.21158 -94.25603 7025 ft 189 kts 102°
2026-05-05 23:20 39.20899 -94.23932 7028 ft 190 kts 101°
2026-05-05 23:20 39.20638 -94.22261 7024 ft 190 kts 102°
2026-05-05 23:20 39.20465 -94.21153 7021 ft 189 kts 102°
2026-05-05 23:20 39.20206 -94.19490 7020 ft 189 kts 101°
2026-05-05 23:21 39.19862 -94.17289 7022 ft 189 kts 101°
2026-05-05 23:21 39.19560 -94.15633 7024 ft 190 kts 104°
2026-05-05 23:21 39.19343 -94.14511 7024 ft 192 kts 104°
2026-05-05 23:21 39.19024 -94.12857 7025 ft 193 kts 104°
2026-05-05 23:22 39.18702 -94.11179 7022 ft 194 kts 104°
2026-05-05 23:22 39.18374 -94.09470 7025 ft 198 kts 104°
2026-05-05 23:22 39.18042 -94.07749 7022 ft 198 kts 104°
2026-05-05 23:22 39.17712 -94.06035 7018 ft 195 kts 104°
2026-05-05 23:23 39.17388 -94.04357 7019 ft 192 kts 104°
2026-05-05 23:23 39.17068 -94.02694 7010 ft 188 kts 104°
2026-05-05 23:23 39.16754 -94.01064 7012 ft 187 kts 104°
2026-05-05 23:23 39.16444 -93.99454 7014 ft 187 kts 104°
2026-05-05 23:24 39.16132 -93.97831 7010 ft 186 kts 104°
2026-05-05 23:24 39.15821 -93.96215 7012 ft 186 kts 104°
2026-05-05 23:24 39.15509 -93.94595 7012 ft 186 kts 104°
2026-05-05 23:24 39.15198 -93.92983 7012 ft 185 kts 103°
2026-05-05 23:25 39.14888 -93.91376 7012 ft 185 kts 103°
2026-05-05 23:25 39.14578 -93.89770 7014 ft 184 kts 103°
2026-05-05 23:25 39.14268 -93.88163 7013 ft 185 kts 103°
2026-05-05 23:25 39.13959 -93.86563 7017 ft 185 kts 103°
2026-05-05 23:26 39.13648 -93.84947 7011 ft 185 kts 103°
2026-05-05 23:26 39.13337 -93.83338 7024 ft 185 kts 104°
2026-05-05 23:26 39.13026 -93.81728 7021 ft 185 kts 103°
2026-05-05 23:26 39.12715 -93.80119 7017 ft 185 kts 103°
2026-05-05 23:27 39.12404 -93.78509 7019 ft 185 kts 103°
2026-05-05 23:27 39.12094 -93.76908 7015 ft 185 kts 103°
2026-05-05 23:27 39.11787 -93.75319 7023 ft 185 kts 103°
2026-05-05 23:27 39.11476 -93.73713 7018 ft 185 kts 103°
2026-05-05 23:28 39.11165 -93.72107 7021 ft 185 kts 103°
2026-05-05 23:28 39.10854 -93.70501 7017 ft 185 kts 103°
2026-05-05 23:28 39.10542 -93.68892 7024 ft 185 kts 103°
2026-05-05 23:28 39.10230 -93.67285 7025 ft 186 kts 103°
2026-05-05 23:29 39.09916 -93.65668 7029 ft 186 kts 103°
2026-05-05 23:29 39.09602 -93.64050 7024 ft 186 kts 103°
2026-05-05 23:29 39.09287 -93.62428 7024 ft 186 kts 103°
2026-05-05 23:29 39.08973 -93.60811 7023 ft 186 kts 103°
2026-05-05 23:30 39.08658 -93.59189 7024 ft 187 kts 103°
2026-05-05 23:30 39.08343 -93.57568 7030 ft 187 kts 103°
2026-05-05 23:30 39.08028 -93.55947 7029 ft 187 kts 103°
2026-05-05 23:30 39.07713 -93.54324 7030 ft 187 kts 103°
2026-05-05 23:31 39.07398 -93.52703 7026 ft 187 kts 103°
2026-05-05 23:31 39.07083 -93.51078 7026 ft 187 kts 103°
2026-05-05 23:31 39.06766 -93.49450 7025 ft 187 kts 103°
2026-05-05 23:31 39.06451 -93.47825 7026 ft 187 kts 103°
2026-05-05 23:32 39.06140 -93.46223 7030 ft 187 kts 103°
2026-05-05 23:32 39.05825 -93.44599 7031 ft 187 kts 103°
2026-05-05 23:32 39.05508 -93.42972 7030 ft 188 kts 103°
2026-05-05 23:32 39.05193 -93.41349 7032 ft 187 kts 103°
2026-05-05 23:33 39.04876 -93.39713 7034 ft 187 kts 103°
2026-05-05 23:33 39.04560 -93.38087 7041 ft 187 kts 103°
2026-05-05 23:33 39.04243 -93.36459 7035 ft 187 kts 103°
2026-05-05 23:33 39.03925 -93.34828 7041 ft 188 kts 103°
2026-05-05 23:34 39.03608 -93.33196 7035 ft 189 kts 103°
2026-05-05 23:34 39.03294 -93.31581 7031 ft 188 kts 103°
2026-05-05 23:34 39.02976 -93.29947 7035 ft 188 kts 103°
2026-05-05 23:34 39.02658 -93.28312 7039 ft 189 kts 103°
2026-05-05 23:35 39.02338 -93.26674 7035 ft 188 kts 103°
2026-05-05 23:35 39.02020 -93.25045 7035 ft 187 kts 103°
2026-05-05 23:35 39.01702 -93.23417 7033 ft 188 kts 103°
2026-05-05 23:35 39.01385 -93.21792 7032 ft 187 kts 103°
2026-05-05 23:36 39.01068 -93.20165 7037 ft 187 kts 103°
2026-05-05 23:36 39.00751 -93.18538 7032 ft 187 kts 103°
2026-05-05 23:36 39.00434 -93.16913 7031 ft 187 kts 103°
2026-05-05 23:36 39.00117 -93.15292 7032 ft 187 kts 103°
2026-05-05 23:37 38.99800 -93.13668 7035 ft 187 kts 103°
2026-05-05 23:37 38.99481 -93.12041 7026 ft 188 kts 103°
2026-05-05 23:37 38.99166 -93.10428 7032 ft 189 kts 103°
2026-05-05 23:37 38.98848 -93.08790 7032 ft 189 kts 103°
2026-05-05 23:38 38.98530 -93.07154 7029 ft 188 kts 103°
2026-05-05 23:38 38.98213 -93.05526 7031 ft 187 kts 103°
2026-05-05 23:38 38.97897 -93.03901 7025 ft 187 kts 103°
2026-05-05 23:38 38.97581 -93.02275 7029 ft 187 kts 103°
2026-05-05 23:39 38.97265 -93.00652 7030 ft 187 kts 103°
2026-05-05 23:39 38.96950 -92.99027 7026 ft 188 kts 103°
2026-05-05 23:39 38.96635 -92.97402 7032 ft 187 kts 103°
2026-05-05 23:39 38.96319 -92.95772 7029 ft 188 kts 103°
2026-05-05 23:40 38.96007 -92.94165 7027 ft 188 kts 103°
2026-05-05 23:40 38.95691 -92.92535 7029 ft 188 kts 103°
2026-05-05 23:40 38.95376 -92.90911 7027 ft 187 kts 103°
2026-05-05 23:40 38.95163 -92.89816 7024 ft 187 kts 103°
2026-05-05 23:41 38.94746 -92.87668 7029 ft 187 kts 104°
2026-05-05 23:41 38.94432 -92.86044 7026 ft 187 kts 103°
2026-05-05 23:41 38.94116 -92.84415 7038 ft 187 kts 103°
2026-05-05 23:41 38.93800 -92.82787 7029 ft 187 kts 103°
2026-05-05 23:42 38.93486 -92.81165 7033 ft 187 kts 103°
2026-05-05 23:42 38.93174 -92.79561 7032 ft 188 kts 104°
2026-05-05 23:42 38.92858 -92.77927 7027 ft 188 kts 104°
2026-05-05 23:42 38.92543 -92.76301 7027 ft 187 kts 103°
2026-05-05 23:43 38.92228 -92.74677 7030 ft 188 kts 103°
2026-05-05 23:43 38.91912 -92.73044 7038 ft 188 kts 104°
2026-05-05 23:43 38.91597 -92.71411 7029 ft 188 kts 104°
2026-05-05 23:43 38.91282 -92.69782 7033 ft 188 kts 104°
2026-05-05 23:44 38.90968 -92.68158 7030 ft 188 kts 103°
2026-05-05 23:44 38.90654 -92.66535 7029 ft 188 kts 104°
2026-05-05 23:44 38.90339 -92.64906 7029 ft 188 kts 104°
2026-05-05 23:44 38.90024 -92.63280 7033 ft 188 kts 104°
2026-05-05 23:45 38.89709 -92.61653 7035 ft 188 kts 104°
2026-05-05 23:45 38.89394 -92.60026 7036 ft 188 kts 104°
2026-05-05 23:45 38.89082 -92.58414 7034 ft 189 kts 104°
2026-05-05 23:45 38.88762 -92.56765 7037 ft 192 kts 104°
2026-05-05 23:46 38.88440 -92.55099 7033 ft 193 kts 104°
2026-05-05 23:46 38.88115 -92.53426 7035 ft 193 kts 104°
2026-05-05 23:46 38.87790 -92.51753 7028 ft 193 kts 104°
2026-05-05 23:46 38.87467 -92.50089 7026 ft 192 kts 104°
2026-05-05 23:47 38.87144 -92.48429 7025 ft 192 kts 104°
2026-05-05 23:47 38.86822 -92.46772 7023 ft 191 kts 104°
2026-05-05 23:47 38.86500 -92.45119 7015 ft 191 kts 104°
2026-05-05 23:47 38.86179 -92.43466 7017 ft 191 kts 104°
2026-05-05 23:48 38.85861 -92.41837 7023 ft 191 kts 104°
2026-05-05 23:48 38.85539 -92.40183 7026 ft 191 kts 104°
2026-05-05 23:48 38.85217 -92.38530 7020 ft 191 kts 104°
2026-05-05 23:48 38.84895 -92.36882 7022 ft 190 kts 104°
2026-05-05 23:49 38.84573 -92.35233 7026 ft 190 kts 104°
2026-05-05 23:49 38.84251 -92.33586 7022 ft 191 kts 104°
2026-05-05 23:49 38.83933 -92.31958 7023 ft 190 kts 104°
2026-05-05 23:49 38.83612 -92.30317 7024 ft 189 kts 104°
2026-05-05 23:50 38.83287 -92.28663 7027 ft 189 kts 104°
2026-05-05 23:50 38.83017 -92.27045 7017 ft 188 kts 97°
2026-05-05 23:50 38.82893 -92.25371 7017 ft 188 kts 95°
2026-05-05 23:50 38.82722 -92.23707 7016 ft 188 kts 99°
2026-05-05 23:51 38.82514 -92.22049 7017 ft 188 kts 99°
2026-05-05 23:51 38.82303 -92.20387 7018 ft 189 kts 99°
2026-05-05 23:51 38.82094 -92.18722 7019 ft 188 kts 99°
2026-05-05 23:51 38.81888 -92.17064 7016 ft 188 kts 99°
2026-05-05 23:52 38.81680 -92.15404 7017 ft 189 kts 99°
2026-05-05 23:52 38.81472 -92.13740 7020 ft 189 kts 99°
2026-05-05 23:52 38.81262 -92.12063 7016 ft 190 kts 99°
2026-05-05 23:52 38.81055 -92.10411 7021 ft 190 kts 99°
2026-05-05 23:53 38.80939 -92.09489 7021 ft 190 kts 99°
2026-05-05 23:53 38.80660 -92.07271 7007 ft 190 kts 99°
2026-05-05 23:53 38.80450 -92.05600 7008 ft 189 kts 99°
2026-05-05 23:53 38.80240 -92.03933 7004 ft 189 kts 99°
2026-05-05 23:54 38.80029 -92.02263 7007 ft 189 kts 99°
2026-05-05 23:54 38.79818 -92.00595 7001 ft 190 kts 99°
2026-05-05 23:54 38.79607 -91.98924 6999 ft 190 kts 99°
2026-05-05 23:54 38.79396 -91.97257 7002 ft 189 kts 99°
2026-05-05 23:55 38.79185 -91.95592 7001 ft 189 kts 99°
2026-05-05 23:55 38.78973 -91.93923 6994 ft 190 kts 99°
2026-05-05 23:55 38.78762 -91.92259 6991 ft 189 kts 99°
2026-05-05 23:55 38.78550 -91.90593 6988 ft 189 kts 99°
2026-05-05 23:56 38.78339 -91.88931 6985 ft 189 kts 99°
2026-05-05 23:56 38.78129 -91.87292 6981 ft 189 kts 99°
2026-05-05 23:56 38.77916 -91.85628 6982 ft 189 kts 99°
2026-05-05 23:56 38.77704 -91.83966 6982 ft 189 kts 99°
2026-05-05 23:57 38.77492 -91.82303 6981 ft 189 kts 99°
2026-05-05 23:57 38.77278 -91.80635 6978 ft 189 kts 99°
2026-05-05 23:57 38.77065 -91.78973 6977 ft 189 kts 99°
2026-05-05 23:57 38.76851 -91.77313 6975 ft 189 kts 99°
2026-05-05 23:58 38.76638 -91.75652 6970 ft 189 kts 99°
2026-05-05 23:58 38.76425 -91.74000 6992 ft 187 kts 99°
2026-05-05 23:58 38.76212 -91.72350 6996 ft 188 kts 99°
2026-05-05 23:58 38.75999 -91.70693 6993 ft 189 kts 99°
2026-05-05 23:59 38.75783 -91.69026 6992 ft 190 kts 99°
2026-05-05 23:59 38.75568 -91.67360 6991 ft 190 kts 99°
2026-05-05 23:59 38.75352 -91.65694 6995 ft 190 kts 99°
2026-05-05 23:59 38.75136 -91.64025 6995 ft 190 kts 99°
2026-05-06 00:00 38.74920 -91.62359 6995 ft 189 kts 99°
2026-05-06 00:00 38.74702 -91.60688 6992 ft 189 kts 99°
2026-05-06 00:00 38.74486 -91.59024 6995 ft 190 kts 99°
2026-05-06 00:00 38.74272 -91.57381 6993 ft 189 kts 99°
2026-05-06 00:01 38.74057 -91.55726 6993 ft 188 kts 99°
2026-05-06 00:01 38.73841 -91.54070 6995 ft 189 kts 99°
2026-05-06 00:01 38.73624 -91.52411 6991 ft 189 kts 99°
2026-05-06 00:01 38.73407 -91.50753 6988 ft 189 kts 99°
2026-05-06 00:02 38.73190 -91.49095 6994 ft 189 kts 99°
2026-05-06 00:02 38.72973 -91.47440 6995 ft 188 kts 99°
2026-05-06 00:02 38.72755 -91.45779 6990 ft 189 kts 99°
2026-05-06 00:02 38.72537 -91.44124 6994 ft 188 kts 99°
2026-05-06 00:03 38.72319 -91.42464 6993 ft 189 kts 99°
2026-05-06 00:03 38.72101 -91.40810 6996 ft 189 kts 100°
2026-05-06 00:03 38.71883 -91.39152 6990 ft 189 kts 100°
2026-05-06 00:03 38.71666 -91.37506 6988 ft 189 kts 100°
2026-05-06 00:04 38.71446 -91.35847 6990 ft 189 kts 100°
2026-05-06 00:04 38.71226 -91.34180 6987 ft 190 kts 100°
2026-05-06 00:04 38.71005 -91.32512 6995 ft 189 kts 100°
2026-05-06 00:04 38.70784 -91.30851 6991 ft 189 kts 100°
2026-05-06 00:05 38.70344 -91.27531 6988 ft 190 kts 100°
2026-05-06 00:05 38.70122 -91.25867 6998 ft 189 kts 100°
2026-05-06 00:05 38.69900 -91.24203 7002 ft 190 kts 100°
2026-05-06 00:06 38.69681 -91.22558 6999 ft 189 kts 100°
2026-05-06 00:06 38.69458 -91.20874 7001 ft 189 kts 100°
2026-05-06 00:06 38.69429 -91.19221 6990 ft 188 kts 87°
2026-05-06 00:06 38.69491 -91.17548 6993 ft 188 kts 87°
2026-05-06 00:07 38.69540 -91.15874 6992 ft 189 kts 88°
2026-05-06 00:07 38.69583 -91.14193 6994 ft 189 kts 88°
2026-05-06 00:07 38.69627 -91.12510 6995 ft 190 kts 88°
2026-05-06 00:07 38.69671 -91.10826 6998 ft 189 kts 88°
2026-05-06 00:08 38.69715 -91.09150 7000 ft 188 kts 88°
2026-05-06 00:08 38.69743 -91.08035 6995 ft 189 kts 88°
2026-05-06 00:08 38.69785 -91.06354 6998 ft 189 kts 88°
2026-05-06 00:08 38.69827 -91.04667 7001 ft 190 kts 88°
2026-05-06 00:09 38.69869 -91.02975 7001 ft 190 kts 88°
2026-05-06 00:09 38.69910 -91.01292 7003 ft 189 kts 88°
2026-05-06 00:09 38.69952 -90.99615 7003 ft 187 kts 89°
2026-05-06 00:09 38.69992 -90.97944 7005 ft 188 kts 89°
2026-05-06 00:10 38.70032 -90.96265 6971 ft 190 kts 88°
2026-05-06 00:10 38.70072 -90.94591 6923 ft 184 kts 88°
2026-05-06 00:10 38.70111 -90.92987 6867 ft 177 kts 88°
2026-05-06 00:10 38.70148 -90.91423 6819 ft 174 kts 88°
2026-05-06 00:11 38.70186 -90.89867 6764 ft 178 kts 88°
2026-05-06 00:11 38.70222 -90.88281 6686 ft 183 kts 88°
2026-05-06 00:11 38.70261 -90.86635 6572 ft 186 kts 87°
2026-05-06 00:11 38.70299 -90.84979 6454 ft 186 kts 87°
2026-05-06 00:12 38.70337 -90.83321 6332 ft 185 kts 87°
2026-05-06 00:12 38.70375 -90.81679 6204 ft 184 kts 87°
2026-05-06 00:12 38.70411 -90.80044 6077 ft 182 kts 86°
2026-05-06 00:12 38.70449 -90.78417 5946 ft 183 kts 86°
2026-05-06 00:13 38.70484 -90.76810 5821 ft 182 kts 86°
2026-05-06 00:13 38.70520 -90.75192 5694 ft 180 kts 86°
2026-05-06 00:13 38.70555 -90.73600 5561 ft 179 kts 86°
2026-05-06 00:13 38.70598 -90.72002 5431 ft 179 kts 83°
2026-05-06 00:14 38.70699 -90.70417 5301 ft 179 kts 84°
2026-05-06 00:14 38.70746 -90.68822 5179 ft 180 kts 84°
2026-05-06 00:14 38.70807 -90.67227 5053 ft 179 kts 83°
2026-05-06 00:14 38.70877 -90.65644 4983 ft 175 kts 83°
2026-05-06 00:15 38.70945 -90.64108 4987 ft 171 kts 83°
2026-05-06 00:15 38.71011 -90.62607 4986 ft 169 kts 83°
2026-05-06 00:15 38.71076 -90.61124 4988 ft 169 kts 83°
2026-05-06 00:15 38.71143 -90.59623 4989 ft 169 kts 83°
2026-05-06 00:16 38.71207 -90.58108 4990 ft 170 kts 83°
2026-05-06 00:16 38.71273 -90.56592 4988 ft 171 kts 83°
2026-05-06 00:16 38.71340 -90.55072 4992 ft 171 kts 83°
2026-05-06 00:16 38.71406 -90.53555 4986 ft 169 kts 83°
2026-05-06 00:17 38.71256 -90.52068 4974 ft 173 kts 109°
2026-05-06 00:17 38.70620 -90.50741 4996 ft 177 kts 122°
2026-05-06 00:17 38.69924 -90.49438 4994 ft 177 kts 121°
2026-05-06 00:17 38.69272 -90.48133 4996 ft 175 kts 120°
2026-05-06 00:18 38.68627 -90.46823 4995 ft 174 kts 119°
2026-05-06 00:18 38.67979 -90.45510 4995 ft 175 kts 119°
2026-05-06 00:18 38.67330 -90.44195 4994 ft 174 kts 119°
2026-05-06 00:18 38.66685 -90.42882 4997 ft 175 kts 119°
2026-05-06 00:19 38.66041 -90.41582 4992 ft 167 kts 119°
2026-05-06 00:19 38.65447 -90.40383 4989 ft 153 kts 119°
2026-05-06 00:19 38.64902 -90.39284 4989 ft 138 kts 119°
2026-05-06 00:19 38.64409 -90.38283 4989 ft 129 kts 118°
2026-05-06 00:20 38.63942 -90.37342 4984 ft 122 kts 118°
2026-05-06 00:20 38.63503 -90.36445 4987 ft 117 kts 117°
2026-05-06 00:20 38.63077 -90.35583 4986 ft 113 kts 117°
2026-05-06 00:20 38.62662 -90.34742 4990 ft 113 kts 117°
2026-05-06 00:21 38.62237 -90.33890 4988 ft 112 kts 118°
2026-05-06 00:21 38.61831 -90.33061 4986 ft 111 kts 117°
2026-05-06 00:21 38.61414 -90.32221 4979 ft 112 kts 118°
2026-05-06 00:21 38.61375 -90.31341 4956 ft 96 kts 46°
2026-05-06 00:22 38.61886 -90.30945 4981 ft 82 kts 28°
2026-05-06 00:22 38.62388 -90.30538 4806 ft 87 kts 27°
2026-05-06 00:22 38.62921 -90.30126 4642 ft 91 kts 28°
2026-05-06 00:22 38.63474 -90.29695 4472 ft 94 kts 29°
2026-05-06 00:23 38.64035 -90.29269 4309 ft 96 kts 27°
2026-05-06 00:23 38.64617 -90.28834 4138 ft 97 kts 28°
2026-05-06 00:23 38.65192 -90.28408 3899 ft 91 kts 28°
2026-05-06 00:23 38.65717 -90.28008 3632 ft 84 kts 28°
2026-05-06 00:24 38.66199 -90.27629 3339 ft 82 kts 27°
2026-05-06 00:24 38.66699 -90.27234 2959 ft 85 kts 27°
2026-05-06 00:24 38.67211 -90.26851 2575 ft 86 kts 28°
2026-05-06 00:24 38.67726 -90.26455 2197 ft 88 kts 28°
2026-05-06 00:25 38.68254 -90.26046 1806 ft 88 kts 27°
2026-05-06 00:25 38.68806 -90.25771 1408 ft 86 kts 354°
2026-05-06 00:25 38.69324 -90.25895 1267 ft 70 kts 356°
2026-05-06 00:25 38.69759 -90.26070 1108 ft 71 kts 316°
2026-05-06 00:26 38.70082 -90.26540 973 ft 70 kts 325°
2026-05-06 00:26 38.70356 -90.27078 830 ft 77 kts 299°
2026-05-06 00:26 38.70606 -90.27721 887 ft 89 kts 307°
2026-05-06 00:26 38.70933 -90.28404 1065 ft 88 kts 325°
2026-05-06 00:27 38.71381 -90.28968 1250 ft 96 kts 310°
2026-05-06 00:27 38.71684 -90.29644 1284 ft 83 kts 311°
2026-05-06 00:27 38.72000 -90.30283 1313 ft 84 kts 313°
2026-05-06 00:27 38.72318 -90.30897 1398 ft 83 kts 311°
2026-05-06 00:28 38.72633 -90.31531 1372 ft 82 kts 309°
2026-05-06 00:28 38.72944 -90.32152 1270 ft 84 kts 311°
2026-05-06 00:28 38.73265 -90.32760 930 ft 83 kts 313°
2026-05-06 00:28 38.73567 -90.33389 757 ft 82 kts 311°
2026-05-06 00:29 38.73882 -90.34001 634 ft 81 kts 312°
2026-05-06 00:29 38.74163 -90.34544 589 ft 61 kts 311°
2026-05-06 00:29 38.74358 -90.34939 574 ft 46 kts 298°
2026-05-06 00:29 38.74501 -90.35239 575 ft 32 kts 305°
2026-05-06 00:30 38.74613 -90.35240 567 ft 16 kts 37°
2026-05-06 00:30 38.74697 -90.35148 567 ft 16 kts 94°
2026-05-06 00:30 38.74635 -90.35001 570 ft 21 kts 123°
2026-05-06 00:30 38.74571 -90.34834 573 ft 18 kts 110°
2026-05-06 00:31 38.74528 -90.34756 575 ft 9 kts 139°
2026-05-06 00:31 38.74503 -90.34759 575 ft 0 kts 217°